Regional Weather Roundup
Issued by NWS

Home | Current Version | Previous Version | Text Only | Print | Product List | Glossary On
Versions: 1 2 3 4 5 6 7 8 9 10 11 12 13 14 15 16 17 18 19 20 21 22 23 24 25 26 27 28 29 30 31 32 33 34 35 36 37 38 39 40 41 42 43 44 45 46 47 48 49 50
000
ASUS42 KKEY 220710
RWRKEY

FLORIDA REGIONAL WEATHER ROUNDUP FOR THE FLORIDA KEYS
NATIONAL WEATHER SERVICE KEY WEST FLORIDA
300 AM EDT TUE JUL 22 2014

...SOUTH FLORIDA AND THE KEYS...

CITY           SKY/WX    TMP DP  RH WIND       PRES   REMARKS
FORT MYERS     PTCLDY    76  74  93 CALM      30.01F
SW REGIONAL AP MOCLDY    74  73  97 E5        30.01F
NAPLES         PTCLDY    76  75  97 E8        30.00F
MIAMI          MOCLDY    78  75  90 CALM      30.01F
WEST KENDALL   PTCLDY    77  74  90 CALM      30.01F
HOMESTEAD      PTCLDY    81  75  83 E5        30.01F
MARATHON       MOCLDY    82  75  79 E8        30.00F
BOCA CHICA NAS CLOUDY    84  76  76 SE10      29.99F THUNDER HX  93
KEY WEST INTL  CLOUDY    85  75  72 SE13      30.00F HX  93

...INTERNATIONAL WEATHER...

CITY           SKY/WX    TMP DP  RH WIND       PRES   REMARKS
NASSAU BAHAMAS MOCLDY    79  75  89 CALM      30.06F
CANCUN MEXICO  CLEAR     79  75  89 SE6       30.01F
COZUMEL MEXICO CLEAR     73  73 100 CALM      30.02F

ADJACENT COASTAL WATERS...

STATION/POSITION TIME  SKY/WX   TEMP    WIND        PRES    WAVE
                                AIR SEA DIR/SP/G            HT/PER
                 (UTC)          (F)     (DEG/KT/KT) (MB)    (FT/S)
PULASKI SHOAL LI 0700            85     140/  5/  6 1015.6F
SAND KEY         0700            84     140/ 12/ 15 1015.8F
SOMBRERO KEY     0700            82     130/ 14/ 15 1016.5F
LONG KEY         0700            82 88  180/  6/  7 1016.7F
MOLASSES REEF    0700            83 86  110/  9/ 10 1015.7F
FOWEY ROCKS      0700            83 85  120/ 12/ 13 1016.3F
Buoy 42080       NOT AVBL

$$


USA.gov is the U.S. government's official web portal to all federal, state and local government web resources and services.